Danbury, CT

2:28 AM EST on February 23, 2018 (GMT -0500)
Danbury Municipal

Weather History for KDXR - February, 2013

Change the Weather History Date:

Thursday, February 7, 2013

  Actual Average Record
Temperature  
Mean Temperature 23 °F -  
Max Temperature 30 °F 32 °F 52 °F (2005)
Min Temperature 16 °F 16 °F -5 °F (1993)
Degree Days  
Heating Degree Days 42    
Moisture  
Dew Point 6 °F    
Average Humidity 48    
Maximum Humidity 77    
Minimum Humidity 33    
Precipitation  
Precipitation 0.00 in - - ()
Sea Level Pressure  
Sea Level Pressure 30.45 in    
Wind  
Wind Speed 3 mph (ENE)    
Max Wind Speed 7 mph    
Max Gust Speed -    
Visibility 10 miles    
Events      
Averages and records for this station are not official NWS values.
T = Trace of Precipitation, MM = Missing Value Source: NWS Daily Summary

Daily Weather History Graph

Daily Weather History Graph

Search for Another Location

Airport or City:

Trip Planner

Search our weather history database for the weather conditions in past years. The results will help you decide how hot, cold, wet, or windy it might be!

Date:

Astronomy

Feb. 07, 2013 Rise Set
Actual Time 6:58 AM EST 5:18 PM EST
Civil Twilight 6:29 AM EST 5:46 PM EST
Nautical Twilight 5:57 AM EST 6:19 PM EST
Astronomical Twilight 5:24 AM EST 6:51 PM EST
Moon 4:36 AM EST (2/7) 2:38 PM EST (2/7)
Length of Visible Light 11h 17m
Length of Day
10h 19m
Waning Crescent, 9% of the Moon is Illuminated
Feb 7
Waning Crescent
Feb 10
New
Feb 17
First Quarter
Feb 25
Full
Mar 4
Last Quarter

Hourly Weather History & Observations

Time (EST) Temp. Windchill Dew Point Humidity Pressure Visibility Wind Dir Wind Speed Gust Speed Precip Events Conditions
12:53 AM 23.0 °F 15.8 °F -0.9 °F 35% 30.35 in 10.0 mi North 5.8 mph - N/A   Clear
1:53 AM 19.9 °F - 1.0 °F 44% 30.38 in 10.0 mi Calm Calm - N/A   Clear
2:53 AM 19.9 °F - 1.9 °F 46% 30.41 in 10.0 mi Calm Calm - N/A   Clear
3:53 AM 17.1 °F - 7.0 °F 65% 30.42 in 10.0 mi Calm Calm - N/A   Clear
4:53 AM 17.1 °F - 6.1 °F 62% 30.43 in 10.0 mi Calm Calm - N/A   Clear
5:53 AM 16.0 °F - 10.0 °F 77% 30.45 in 10.0 mi Calm Calm - N/A   Clear
6:53 AM 18.0 °F - 10.0 °F 71% 30.46 in 10.0 mi Calm Calm - N/A   Clear
7:53 AM 21.0 °F 16.2 °F 3.9 °F 48% 30.49 in 10.0 mi North 3.5 mph - N/A   Clear
8:53 AM 21.9 °F 17.2 °F 1.0 °F 40% 30.51 in 10.0 mi Variable 3.5 mph - N/A   Overcast
9:53 AM 23.0 °F 17.0 °F 3.0 °F 42% 30.51 in 10.0 mi NE 4.6 mph - N/A   Clear
10:53 AM 25.0 °F 18.1 °F 3.9 °F 41% 30.52 in 10.0 mi Variable 5.8 mph - N/A   Clear
11:53 AM 27.0 °F 19.5 °F 3.0 °F 36% 30.51 in 10.0 mi NNE 6.9 mph - N/A   Scattered Clouds
12:53 PM 28.0 °F 24.2 °F 3.9 °F 36% 30.48 in 10.0 mi Variable 3.5 mph - N/A   Mostly Cloudy
1:53 PM 28.0 °F - 3.0 °F 34% 30.46 in 10.0 mi Calm Calm - N/A   Overcast
2:53 PM 28.9 °F - 3.9 °F 35% 30.45 in 10.0 mi Calm Calm - N/A   Overcast
3:53 PM 30.0 °F 23.2 °F 3.9 °F 33% 30.45 in 10.0 mi SSE 6.9 mph - N/A   Overcast
4:53 PM 30.0 °F 25.2 °F 3.9 °F 33% 30.43 in 10.0 mi SE 4.6 mph - N/A   Overcast
5:53 PM 28.9 °F 23.9 °F 8.1 °F 41% 30.44 in 10.0 mi SSE 4.6 mph - N/A   Overcast
6:53 PM 28.0 °F 24.2 °F 7.0 °F 41% 30.45 in 10.0 mi ESE 3.5 mph - N/A   Overcast
7:53 PM 26.1 °F - 9.0 °F 49% 30.45 in 10.0 mi Calm Calm - N/A   Clear
8:53 PM 24.1 °F - 10.9 °F 57% 30.45 in 10.0 mi Calm Calm - N/A   Scattered Clouds
9:53 PM 23.0 °F - 14.0 °F 68% 30.44 in 10.0 mi Calm Calm - N/A   Mostly Cloudy
10:53 PM 25.0 °F 20.7 °F 12.9 °F 60% 30.41 in 10.0 mi NE 3.5 mph - N/A   Overcast
11:53 PM 27.0 °F 20.5 °F 15.1 °F 61% 30.38 in 10.0 mi ENE 5.8 mph - N/A   Overcast